Location: 433rd Scouts Home(Lloyd Manor Park, Etobicoke )
(43.6722°N, 79.5542°W)
Time: 15:42:58
(UTC-04:00)

N. Korean satellite - Visible Passes

Search period start: 25 September 2021 00:00
Search period end: 05 October 2021 00:00
Orbit: 449 x 498 km, 97.3° (Epoch: 25 September)

Date Brightness Start Highest point End Pass type
(mag) Time Alt. Az. Time Alt. Az. Time Alt. Az.
25 Sep 9.5 05:50:07 10° NE 05:52:48 20° E 05:55:30 10° SE visible
27 Sep 7.2 06:27:02 10° NNE 06:30:33 60° E 06:34:07 10° S visible
28 Sep 9.0 05:59:36 10° NE 06:02:41 26° E 06:05:45 10° SSE visible
29 Sep 9.9 05:33:03 10° ENE 05:34:40 13° E 05:36:17 10° ESE visible
30 Sep 6.7 06:36:43 10° NNE 06:40:19 82° ESE 06:43:57 10° S visible
01 Oct 8.4 06:09:06 10° NNE 06:12:26 34° E 06:15:47 10° SSE visible
02 Oct 9.8 05:42:03 10° NE 05:44:26 16° E 05:46:48 10° SE visible
03 Oct 6.5 06:46:21 10° N 06:49:58 75° WNW 06:53:36 10° SSW visible
04 Oct 7.8 06:18:35 10° NNE 06:22:06 46° E 06:25:36 10° S visible
